Location: Winthrop
(48.4780°N, 120.1850°W)
Time: 00:59:47
(UTC-07:00)

S-56A Canister/Altair - Pass Details

Date: 08 June 2023
Orbit: 640 x 2489 km, 38.9° (Epoch: 29 September)

Event Time Altitude Azimuth Distance (km) Brightness Sun altitude
Rises 00:03:08 0° 267° (W) 5,682 12.1 -17.6°
Reaches altitude 10° 00:06:42 10° 263° (W) 4,845 11.7 -17.7°
Maximum altitude 00:20:25 55° 192° (SSW) 2,861 10.0 -18.1°
Drops below altitude 10° 00:34:18 10° 121° (ESE) 4,888 11.3 -18.5°
Sets 00:37:55 0° 117° (ESE) 5,734 11.7 -18.5°
